Hourly Data Report for March 05, 2012

All times are specified in Local Standard Time (LST). Add 1 hour to adjust for Daylight Saving Time where and when it is observed.

MIRAMICHI RCS
NEW BRUNSWICK

47°00'34.000" N
65°27'54.000" W
33.00 m
8100989
71744
ACQ

Download Data

Hourly Data (March 2012)
Hourly Data Report for March 5, 2012
TIME Temp Definition
°C
Dew Point Temp Definition
°C
Rel Hum Definition
%
Wind Dir Definition
10's deg

Wind Spd Definition
km/h
Visibility Definition
km
Stn Press Definition
kPa
Hmdx Definition


Wind Chill Definition


Weather Definition


00:00 -0.7 -2.2 90 5 11   99.60   -4 LegendNANA
01:00 -2.0 -3.4 90 8 17   99.60   -7 LegendNANA
02:00 -2.3 -4.0 88 4 11   99.59   -6 LegendNANA
03:00 -2.3 -4.1 87 1 6   99.63   -5 LegendNANA
04:00 -2.2 -4.0 87 35 6   99.65   -5 LegendNANA
05:00 -2.4 -4.2 87 36 7   99.72   -5 LegendNANA
06:00 -3.1 -5.1 86 1 9   99.82   -7 LegendNANA
07:00 -4.1 -6.2 85 36 11   99.93   -9 LegendNANA
08:00 -4.9 -7.6 81 3 15   100.07   -10 LegendNANA
09:00 -5.5 -9.1 76 3 19   100.20   -12 LegendNANA
10:00 -5.6 -9.6 73 3 15   100.31   -11 LegendNANA
11:00 -5.6 -10.4 69 5 19   100.39   -12 LegendNANA
12:00 -4.6 -10.0 66 6 15   100.48   -10 LegendNANA
13:00 -4.1 -9.4 67 9 15   100.57   -9 LegendNANA
14:00 -4.0 -8.6 70 8 17   100.64   -10 LegendNANA
15:00 -5.0 -9.0 73 7 19   100.75   -11 LegendNANA
16:00 -5.4 -9.2 75 8 19   100.91   -12 LegendNANA
17:00 -6.4 -9.5 79 7 15   101.04   -12 LegendNANA
18:00 -6.8 -9.8 79 9 17   101.21   -13 LegendNANA
19:00 -7.2 -9.4 84 8 13   101.34   -13 LegendNANA
20:00 -7.5 -9.1 88 5 6   101.45   -11 LegendNANA
21:00 -8.1 -9.6 89 4 6   101.57   -11 LegendNANA
22:00 -8.0 -9.5 89 4 7   101.69   -12 LegendNANA
23:00 -8.0 -9.7 88 4 6   101.77   -11 LegendNANA

Notes on Data Quality.

Legend

  • E = Estimated
  • M = Missing
  • NA = Not Available
Date modified: